The following orbital elements are taken from MPO210403
Epoch 2012 Sept. 30.0 TT = JDT 2456200.5 MPC
M 47.65145 (2000.0) P Q
n 0.01281390 Peri. 290.69920 +0.44493790 +0.89499994
a 18.0862520 Node 6.01456 -0.66693436 +0.35477146
e 0.6195644 Incl. 17.61436 -0.59768623 +0.27039291
P 76.9 H 9.1 G 0.15 U 0
From 457 observations at 16 oppositions, 1995-2011, mean residual 0".49.